Location: Arbon
(43.0005°N, 0.7472°E)
Time: 12:44:51
(UTC+00:00)

Vanguard 1 - Pass Details

Date: 05 December 2020
Orbit: 648 x 3834 km, 34.3° (Epoch: 23 January)

Event Time Altitude Azimuth Distance (km) Brightness Sun altitude
Rises 10:41:03 0° 261° (W) 5,070 13.6 22.8°
Reaches altitude 10° 10:46:52 10° 236° (WSW) 4,747 13.9 23.1°
Maximum altitude 10:52:16 13° 213° (SSW) 5,036 14.5 23.3°
Drops below altitude 10° 10:58:46 10° 190° (S) 5,890 15.4 23.6°
Sets 11:08:33 0° 169° (S) 7,560 16.0 23.9°
